Weather in Miami Gardens

United States     25°58′45″N   80°12′24″W
temp.,
°C
wind,
m/s
gust,
m/s
humid.,
%
clouds,
%
prec.,
mm/h
press.,
hPa
HPBL,
m
18 may, tue
tue1823:00+25e7858100 0.1 10201319
02:00+25e6862100 0.3 10191239
05:00+25e6858100 0.1 1018948
08:00+25e7963100 0.1 10191232
11:00+27e8853100 0.3 10201513
14:00+28e884965 0.3 10191610
17:00+28e884949 0.0 10181741
20:00+26e9106289 0.1 10191372
19 may, wed
wed1923:00+25e9116554 0.6 10201330
02:00+25e7106095 0.7 10191454
05:00+24e7969100 0.2 10181122
08:00+25e81069100 0.4 10191060
11:00+26e9105994 0.6 10201378
14:00+28e9105296 0.8 10201642
17:00+28e9104992 0.1 10191684
20:00+25e91165100 0.3 10201181
20 may, thu
thu2023:00+25e91268100 0.8 10201205
02:00+25e91265100 1.3 10191322
05:00+25e81058100 0.0 10191521
08:00+25e81061100 0.0 10201532
11:00+25e91058100 0.1 10211343
14:00+27ene10105083 0.3 10211721
17:00+27e10115374 0.1 10201814
20:00+25e9126161 0.3 10201622
21 may, fri
fri2123:00+26e9125288 0.1 10211897
02:00+25e8115275 0.2 10211868
05:00+24e8115758 0.1 10211570
08:00+25ene8105838 0.3 10221679
11:00+27ene9115384 0.1 10231742
14:00+28ene9104648 0.2 10231855
17:00+27ene9105394 0.1 10211718
20:00+25ene9105448 0.3 10221563
22 may, sat
sat2223:00+25ene8105282 0.0 10221619
02:00+24ene795297 0.0 10211678
05:00+24ene6849100 0.0 10201582
08:00+24e685987 0.4 10221389
11:00+26ene774762 0.0 10221749
14:00+28ene774292 0.0 10211947
17:00+28ene784140 0.0 10201716
20:00+25ene786084 0.0 10201221